[[{"header":{"parameterUnit":"m.s-1","parameterCategory":1,"la1":30.2991,"la2":30.254,"lo1":-89.0895,"lo2":-89.0444,"dy":0.0017,"dx":0.0017,"nx":28,"ny":28,"refTime":"2025-06-01T21:00:00:Z","depth":0,"parameterNumber":2,"parameterNumberName":"U-component_of_WINDS"},"data":[0,0,0,0,0,0,0,0,0,0,0,0,0,0,0,0,0,0,0,0,0,0,0,0,0,0,0,0,0,0,0,0,0,0,0,0,0,0,0,0,0,0,0,0,0,0,0,0,0,0,0,0,0,0,0,0,0,0,-3.0874,-3.0875,0,-3.0972,-3.0973,-3.0975,-3.0946,-3.0944,-3.0942,-3.094,-3.1041,-3.1046,-3.105,0,0,0,0,0,0,0,0,0,0,0,0,0,-3.066,-3.0664,-3.0873,-3.0875,-3.0876,-3.0972,-3.0974,-3.0975,-3.0946,-3.0944,-3.0941,-3.0939,-3.104,-3.1045,-3.1051,0,0,0,0,0,0,0,0,0,0,0,0,0,-3.0755,-3.0665,-3.0873,-3.0873,-3.0874,-3.0972,-3.0974,-3.0975,-3.0947,-3.0944,-3.0941,-3.0938,-3.1038,-3.1045,-3.1051,-3.1155,0,0,-3.1072,-3.1075,0,0,0,0,0,0,0,0,-3.075,-3.0763,-3.0872,-3.0873,-3.0875,-3.0944,-3.0935,-3.1035,-3.0948,-3.0919,-3.094,-3.0936,-3.1011,-3.102,-3.1045,-3.116,-3.1164,-3.1073,-3.1077,-3.108,-3.1082,0,0,0,0,0,0,0,-3.0743,-3.0758,-3.0913,-3.0874,-3.0875,-3.0868,-3.0878,-3.0954,-3.0981,-3.0922,-3.092,-3.0932,-3.1011,-3.1039,-3.1048,-3.1165,-3.1073,-3.1079,-3.1083,-3.1086,-3.1368,-3.1372,0,0,0,0,0,0,-3.0735,-3.0753,-3.0909,-3.0915,-3.0803,-3.0875,-3.0886,-3.0925,-3.098,-3.0986,-3.0934,-3.093,-3.1029,-3.104,-3.1051,-3.1174,-3.108,-3.1087,-3.109,-3.1365,-3.1369,-3.1373,0,0,0,0,0,0,-3.0731,-3.075,-3.0905,-3.0834,-3.0853,-3.0882,-3.0925,-3.0928,-3.0955,-3.099,-3.0995,-3.0957,-3.1027,-3.1041,-3.1129,-3.1178,-3.109,-3.1096,-3.1361,-3.1366,-3.1371,-3.1423,0,0,0,0,0,0,-3.0725,-3.0748,-3.0788,-3.0835,-3.0857,-3.0982,-3.0928,-3.0932,-3.0967,-3.0963,-3.1013,-3.1018,-3.1025,-3.1119,-3.1136,-3.1186,-3.1101,-3.1357,-3.1363,-3.1369,-3.1417,-3.1429,-3.144,0,0,0,0,0,-3.0717,-3.0799,-3.079,-3.0809,-3.0907,-3.0985,-3.0997,-3.1004,-3.0972,-3.1011,-3.1033,-3.1016,-3.117,-3.1128,-3.1147,-3.1199,-3.1354,-3.1361,-3.1369,-3.1412,-3.1427,-3.144,0,0,0,0,0,0,-3.0757,-3.0805,-3.0796,-3.0895,-3.0936,-3.098,-3.103,-3.102,-3.1071,-3.1065,-3.1071,-3.1082,-3.1172,-3.1195,-3.1147,-3.1302,-3.1257,-3.1269,-3.1283,-3.1298,-3.1309,-3.1301,-3.1107,0,0,0,0,0,-3.0778,-3.0837,-3.0875,-3.0959,-3.098,-3.1002,-3.1036,-3.1038,-3.108,-3.1097,-3.1126,-3.1168,-3.1225,-3.1263,-3.1318,-3.1421,-3.1431,-3.1466,-3.1478,-3.1487,-3.1496,-3.1551,-3.1567,-3.1398,-3.1398,-3.1397,0,0,-3.082,-3.0854,-3.0891,-3.0968,-3.1,-3.106,-3.1017,-3.1083,-3.1128,-3.1108,-3.1191,-3.1214,-3.1261,-3.1357,-3.14,-3.1378,-3.1546,-3.1497,-3.1504,-3.1508,-3.1561,-3.1576,-3.1591,-3.1403,-3.1402,-3.1401,0,0,-3.0928,-3.096,-3.1033,-3.1066,-3.1114,-3.1128,-3.1146,-3.1191,-3.1205,-3.129,-3.1275,-3.1329,-3.1429,-3.1462,-3.1493,-3.1613,-3.1599,-3.1631,-3.169,-3.1743,-3.1756,-3.1768,-3.181,-3.1825,-3.1641,-3.1641,-3.1641,0,-3.0975,-3.1065,-3.1071,-3.1139,-3.1173,-3.1157,-3.123,-3.1262,-3.1327,-3.135,-3.1325,-3.1449,-3.148,-3.1582,-3.1612,-3.1637,-3.1657,-3.1625,-3.1754,-3.1766,-3.1777,-3.1817,-3.1832,-3.1645,-3.1644,-3.1644,-3.1644,0,-3.112,-3.1183,-3.1236,-3.1297,-3.1338,-3.1408,-3.1424,-3.1464,-3.1462,-3.1479,-3.1565,-3.1601,-3.1663,-3.1688,-3.1687,-3.179,-3.1775,-3.1752,-3.1707,-3.1796,-3.1834,-3.1849,-3.165,-3.1648,-3.1647,-3.1646,0,0,-3.1255,-3.1319,-3.1338,-3.1365,-3.1418,-3.1467,-3.1536,-3.1596,-3.1629,-3.1675,-3.1732,-3.1817,-3.1796,-3.183,-3.1833,-3.188,-3.1971,-3.1852,-3.1853,-3.1871,-3.2086,-3.2101,-3.2118,-3.1963,-3.1966,-3.1968,-3.2081,0,-3.1366,-3.1487,-3.1494,-3.1604,-3.1661,-3.1648,-3.1708,-3.1746,-3.1764,-3.1815,-3.1834,-3.1893,-3.1862,-3.1883,-3.1929,-3.1951,-3.2014,-3.1943,-3.2015,-3.2018,-3.2002,-3.2138,-3.2155,-3.2259,-3.2096,-3.2098,-3.21,0,-3.1512,-3.1561,-3.1676,-3.1719,-3.1744,-3.1797,-3.1852,-3.1902,-3.1945,-3.1955,-3.1993,-3.1989,-3.206,-3.2013,-3.211,-3.2061,-3.2091,-3.2106,-3.2111,-3.2116,-3.2063,-3.2146,-3.2293,-3.2308,-3.2123,-3.2122,-3.212,0,-3.1597,-3.1691,-3.1772,-3.1796,-3.1849,-3.1887,-3.1911,-3.1952,-3.1987,-3.2035,-3.2058,-3.2114,-3.2145,-3.2188,-3.22,-3.2165,-3.2296,-3.225,-3.2304,-3.2304,-3.2331,-3.2329,-3.2483,-3.2354,-3.2354,-3.2353,-3.2353,0,-3.1719,-3.179,-3.1811,-3.186,-3.1939,-3.1947,-3.2024,-3.2046,-3.2082,-3.2135,-3.2127,-3.2177,-3.219,-3.2242,-3.2252,-3.233,-3.2344,-3.2353,-3.2354,-3.2353,-3.2351,-3.2371,-3.2364,-3.2357,-3.2357,-3.2356,-3.2355,0,-3.1827,-3.1844,-3.1931,-3.1974,-3.1986,-3.2042,-3.2079,-3.2126,-3.2142,-3.221,-3.2226,-3.2252,-3.2313,-3.2329,-3.2402,-3.2409,-3.25,-3.2495,-3.2485,-3.2484,-3.2537,-3.2531,-3.2708,-3.2731,-3.2588,-3.2589,-3.2591,0,-3.1903,-3.1957,-3.2005,-3.204,-3.2066,-3.2122,-3.2158,-3.2168,-3.2205,-3.2258,-3.2299,-3.236,-3.2408,-3.2507,-3.2532,-3.2588,-3.2583,-3.2642,-3.2592,-3.2588,-3.2582,-3.2578,-3.2583,-3.2651,-3.2652,-3.2653,-3.2654,0,-3.2036,-3.2042,-3.2093,-3.2148,-3.2191,-3.2234,-3.2276,-3.2305,-3.2321,-3.2363,-3.2426,-3.2463,-3.2538,-3.2598,-3.2654,-3.2678,-3.2669,-3.267,-3.2685,-3.2683,-3.2674,-3.2678,-3.2509,-3.2666,-3.2665,-3.2664,-3.2663,-3.2663,-3.2129,-3.2176,-3.2217,-3.2275,-3.2307,-3.2346,-3.2392,-3.2414,-3.2466,-3.2527,-3.253,-3.2597,-3.2639,-3.2713,-3.2741,-3.2794,-3.2776,-3.2799,-3.2804,-3.2809,-3.2813,-3.2667,-3.2805,-3.2804,-3.2804,-3.2804,-3.2804,0,-3.2261,-3.2286,-3.2339,-3.2397,-3.2442,-3.243,-3.2475,-3.2514,-3.2573,-3.2612,-3.266,-3.2731,-3.2789,-3.2818,-3.2876,-3.2912,-3.2909,-3.2927,-3.2923,-3.2929,-3.2826,-3.2806,-3.2928,-3.2928,-3.2928,-3.2928,-3.2928,-3.2928,-3.2334,-3.2412,-3.2422,-3.2516,-3.2541,-3.2606,-3.2633,-3.2669,-3.27,-3.278,-3.2827,-3.2846,-3.2881,-3.2941,-3.2993,-3.3,-3.3021,-3.3041,-3.3046,-3.2949,-3.2936,-3.2924,-3.2905,-3.3046,-3.3046,-3.3143,-3.3144,-3.3145]},{"header":{"parameterUnit":"m.s-1","parameterCategory":1,"la1":30.2991,"la2":30.254,"lo1":-89.0895,"lo2":-89.0444,"dy":0.0017,"dx":0.0017,"nx":28,"ny":28,"refTime":"2025-06-01T21:00:00:Z","depth":0,"parameterNumber":3,"parameterNumberName":"V-component_of_WINDS"},"data":[0,0,0,0,0,0,0,0,0,0,0,0,0,0,0,0,0,0,0,0,0,0,0,0,0,0,0,0,0,0,0,0,0,0,0,0,0,0,0,0,0,0,0,0,0,0,0,0,0,0,0,0,0,0,0,0,0,0,2.9958,2.9959,0,2.9987,2.9988,2.9988,2.9945,2.9943,2.9942,2.994,2.9967,2.9969,2.9971,0,0,0,0,0,0,0,0,0,0,0,0,0,2.9862,2.9864,2.9958,2.9959,2.9959,2.9987,2.9988,2.9988,2.9945,2.9943,2.9941,2.994,2.9966,2.9969,2.9971,0,0,0,0,0,0,0,0,0,0,0,0,0,2.9899,2.9865,2.9958,2.9941,2.994,2.9987,2.9988,2.9988,2.9945,2.9943,2.9941,2.9939,2.9965,2.9968,2.9972,3.0036,0,0,2.9981,2.9983,0,0,0,0,0,0,0,0,2.9897,2.9902,2.9943,2.9942,2.9941,2.996,2.9964,3.0004,2.9946,2.9943,2.994,2.9938,2.9966,2.9969,2.998,3.0037,3.0039,2.9982,2.9983,2.9985,2.9986,0,0,0,0,0,0,0,2.9894,2.9901,2.997,2.9944,2.9943,2.9931,2.9933,2.9971,2.9967,2.9943,2.994,2.9944,2.9965,2.9977,2.998,3.0039,2.9981,2.9984,2.9986,2.9987,3.0149,3.0152,0,0,0,0,0,0,2.9894,2.9899,2.9969,2.9971,2.9913,2.9934,2.9937,2.9956,2.9966,2.9966,2.9946,2.9942,2.9972,2.9976,2.9981,3.0055,2.9985,2.9988,2.999,3.0147,3.015,3.0152,0,0,0,0,0,0,2.9893,2.9901,2.9968,2.9934,2.9942,2.9938,2.996,2.9958,2.9969,2.9969,2.9967,2.9959,2.9971,2.9976,3.0022,3.0055,2.9989,2.9992,3.0144,3.0148,3.0151,3.0206,0,0,0,0,0,0,2.989,2.9901,2.9926,2.9935,2.9944,3.001,2.9962,2.996,2.9975,2.997,2.998,2.998,2.9969,3.0018,3.0026,3.0059,2.9995,3.0141,3.0146,3.015,3.0201,3.0211,3.0219,0,0,0,0,0,2.9887,2.994,2.9928,2.9936,2.9976,3.0012,3.0017,3.0005,2.9978,3.0003,3.0002,2.9979,3.0051,3.0023,3.0031,3.0066,3.0139,3.0144,3.015,3.0197,3.0209,3.0219,0,0,0,0,0,0,2.9934,2.9941,2.9927,2.9985,2.9999,3.0005,3.0036,3.0018,3.0039,3.0033,3.0016,3.0019,3.0068,3.0072,3.0041,3.0128,3.009,3.0098,3.0123,3.0135,3.0144,3.0141,2.9997,0,0,0,0,0,2.9951,2.9982,2.9986,3.0037,3.0044,3.0039,3.0055,3.0044,3.0057,3.0062,3.0065,3.0077,3.0102,3.0119,3.0143,3.0202,3.0202,3.023,3.0239,3.0247,3.0252,3.0282,3.0294,3.017,3.017,3.017,0,0,2.9987,2.9995,3.0015,3.0046,3.0055,3.0086,3.0044,3.0078,3.01,3.0067,3.011,3.0113,3.0126,3.0179,3.0202,3.0183,3.0287,3.0253,3.0259,3.0261,3.0289,3.0301,3.0311,3.0174,3.0173,3.0173,0,0,3.0067,3.0077,3.012,3.013,3.0144,3.0141,3.0151,3.016,3.0161,3.0205,3.018,3.0205,3.025,3.0259,3.027,3.0353,3.0332,3.0362,3.0408,3.0438,3.0447,3.0456,3.0484,3.0494,3.0368,3.0368,3.0368,0,3.0109,3.0155,3.0143,3.0179,3.0193,3.0166,3.0207,3.0218,3.0239,3.0248,3.0227,3.0281,3.0288,3.0342,3.0362,3.0373,3.0382,3.0359,3.0447,3.0456,3.0463,3.0489,3.05,3.0371,3.0371,3.0371,3.037,0,3.0205,3.0237,3.027,3.0292,3.0309,3.0348,3.034,3.036,3.0348,3.0346,3.039,3.0397,3.0421,3.0433,3.0422,3.0485,3.0473,3.045,3.0411,3.0478,3.0503,3.0513,3.0376,3.0375,3.0374,3.0373,0,0,3.0315,3.033,3.0341,3.035,3.0364,3.0388,3.0425,3.0449,3.0465,3.0481,3.051,3.0548,3.0527,3.0539,3.0529,3.0555,3.0618,3.0528,3.0528,3.0543,3.0685,3.0701,3.0713,3.0605,3.0607,3.0609,3.0683,0,3.0393,3.0457,3.0448,3.0509,3.0538,3.0512,3.0544,3.0555,3.0555,3.0578,3.0577,3.0603,3.0574,3.0581,3.0606,3.0605,3.0646,3.06,3.063,3.0631,3.0625,3.0726,3.0742,3.0813,3.0693,3.0695,3.0696,0,3.0493,3.0512,3.0577,3.0585,3.0597,3.0626,3.0646,3.0669,3.0681,3.0679,3.0693,3.0677,3.0713,3.0676,3.0723,3.0692,3.0704,3.0705,3.0708,3.0708,3.0666,3.0726,3.0835,3.0845,3.0711,3.071,3.0709,0,3.0563,3.0606,3.065,3.0658,3.067,3.0691,3.0696,3.0706,3.0721,3.0739,3.0747,3.0769,3.078,3.0797,3.0787,3.0761,3.0836,3.0798,3.0833,3.0833,3.0848,3.0846,3.0957,3.086,3.0859,3.0859,3.0859,0,3.065,3.069,3.0681,3.0708,3.0751,3.074,3.0782,3.0785,3.0794,3.082,3.08,3.0824,3.0811,3.0834,3.0827,3.0866,3.0872,3.0869,3.0866,3.087,3.087,3.0876,3.087,3.0862,3.0861,3.0861,3.086,0,3.0735,3.0731,3.0777,3.0785,3.0787,3.0819,3.0824,3.0849,3.0847,3.0879,3.0886,3.0883,3.0909,3.0902,3.093,3.0925,3.0974,3.0966,3.097,3.0967,3.1001,3.0997,3.1118,3.1132,3.1027,3.1028,3.1029,0,3.079,3.082,3.0831,3.0847,3.0854,3.0881,3.0895,3.0885,3.0901,3.0917,3.0938,3.0963,3.0981,3.1024,3.1023,3.1044,3.1035,3.1076,3.1038,3.104,3.1033,3.103,3.1032,3.1083,3.1084,3.1085,3.1086,0,3.0887,3.0883,3.0906,3.0927,3.0946,3.0962,3.0977,3.0991,3.0981,3.1,3.1027,3.1041,3.107,3.1094,3.1113,3.1117,3.1099,3.1098,3.1107,3.1109,3.1109,3.1107,3.0988,3.1095,3.1094,3.1093,3.1093,3.1092,3.0956,3.0981,3.0993,3.1018,3.1028,3.1042,3.1065,3.1066,3.1088,3.1111,3.1103,3.1133,3.1143,3.1167,3.1174,3.1197,3.1181,3.1194,3.1197,3.12,3.1203,3.1108,3.12,3.12,3.12,3.12,3.1199,0,3.105,3.1056,3.108,3.1101,3.112,3.1104,3.1118,3.1135,3.1162,3.1174,3.1193,3.1222,3.1245,3.1247,3.1268,3.1285,3.1277,3.1291,3.1288,3.1289,3.1217,3.1206,3.1297,3.1297,3.1297,3.1297,3.1297,3.1297,3.1101,3.1141,3.1139,3.1184,3.119,3.1219,3.1229,3.1241,3.125,3.1284,3.1303,3.1304,3.1311,3.1333,3.1352,3.1352,3.136,3.1376,3.1372,3.1304,3.1294,3.1285,3.1275,3.1378,3.1378,3.1442,3.1443,3.1443]}]]